Location: Seale
(51.2000°N, 0.7167°W)
Time: 01:16:29
(UTC+00:00)

Daily predictions for brighter satellites

Satellite Brightness Start Highest point End
(mag) Time Altitude Azimuth Time Altitude Azimuth Time Altitude Azimuth
SL-4 R/B 3.4 00:01:50 12° WNW 00:01:50 12° WNW 00:02:19 10° WNW
ATLAS CENTAUR R/B 3.0 00:01:18 10° NW 00:03:03 25° NNE 00:05:37 10° E
Lacrosse 5 3.9 00:01:07 10° W 00:03:06 12° WSW 00:03:12 12° WSW
STARLINK-1226 3.2 00:00:10 10° WNW 00:03:17 64° N 00:06:23 10° E
STARLINK-1215 3.2 00:01:07 10° WNW 00:04:14 65° N 00:07:20 10° E
STARLINK-1225 3.5 00:00:17 10° WSW 00:04:27 89° NNW 00:08:37 10° ENE
Cosmos 292 Rocket 3.7 00:03:39 32° SSW 00:05:55 86° ESE 00:10:48 10° NNE
STARLINK-1217 3.2 00:02:53 10° WNW 00:06:00 65° N 00:09:06 10° E
STARLINK-1229 3.2 00:03:48 10° WNW 00:06:55 66° N 00:10:02 10° E
STARLINK-1271 4.0 00:03:08 10° W 00:07:17 67° N 00:11:25 10° E
STARLINK-1104 4.0 00:03:45 10° WNW 00:07:41 43° SSW 00:08:13 40° S
STARLINK-1270 3.2 00:04:39 10° WNW 00:07:47 66° N 00:10:54 10° E
S3M 4.2 00:03:13 10° NNW 00:09:16 61° W 00:12:36 27° SSW
STARLINK-1230 3.6 00:05:16 10° WSW 00:09:25 87° NNW 00:13:35 10° ENE
STARLINK-1189 3.2 00:06:31 10° WNW 00:09:38 67° N 00:12:44 10° E
Cosmos 1726 2.1 00:06:13 10° NNW 00:09:54 71° W 00:10:54 45° SSW
STARLINK-1188 3.2 00:07:23 10° WNW 00:10:31 67° N 00:13:38 10° E
Cosmos 2058 Rocket 4.5 00:06:54 10° N 00:10:53 32° ENE 00:13:45 16° SE
Cosmos 1655 Rocket 4.0 00:07:30 27° SSW 00:11:08 77° W 00:17:25 10° N
STARLINK-1235 3.0 00:08:06 10° WNW 00:11:12 72° NNE 00:14:18 10° E
STARLINK-1187 3.1 00:08:31 10° WNW 00:11:37 70° N 00:14:43 10° E
GEOS 3 Rocket 3.7 00:07:39 14° SE 00:12:12 80° NE 00:17:32 10° NW
STARLINK-1154 4.0 00:08:08 10° W 00:12:16 67° N 00:16:25 10° E
STARLINK-1144 4.0 00:08:45 10° WNW 00:12:39 40° SSW 00:13:00 39° SSW
SL-27 R/B 3.7 00:09:36 10° NW 00:12:43 27° WSW 00:13:10 27° WSW
Meteor 1-29 4.4 00:09:55 10° NE 00:12:47 25° E 00:13:32 23° ESE
STARLINK-1191 3.1 00:09:52 10° WNW 00:12:59 68° N 00:16:04 10° E
Cosmos 2228 3.3 00:09:21 10° N 00:13:34 58° ENE 00:15:31 29° SE
SJ 16-02 4.2 00:11:40 10° NNE 00:13:47 13° NE 00:15:53 10° ENE
STARLINK-1221 3.1 00:10:45 10° WNW 00:13:51 68° N 00:16:56 10° E
COSMOS 2455 3.8 00:11:39 24° SSE 00:14:09 33° ESE 00:19:29 10° NE
STARLINK-1243 3.6 00:10:15 10° WSW 00:14:24 84° NNW 00:18:34 10° ENE
STARLINK-1222 3.1 00:11:38 10° WNW 00:14:45 68° NNE 00:17:50 10° E
Cosmos 2263 4.1 00:12:25 29° SSW 00:15:21 76° ESE 00:20:59 10° NNE
STARLINK-1214 3.1 00:12:33 10° WNW 00:15:39 69° N 00:18:45 10° E
Meteor 2-15 Rocket 4.5 00:11:01 10° N 00:17:14 83° ENE 00:20:55 26° SSE
STARLINK-1197 4.0 00:13:07 10° W 00:17:16 67° N 00:21:24 10° E
STARLINK-1103 4.1 00:13:45 10° WNW 00:17:36 38° SW 00:17:46 37° SSW
Cosmos 1953 2.7 00:14:17 10° NNW 00:18:12 52° W 00:19:26 37° SSW
STARLINK-1236 3.6 00:15:14 10° WSW 00:19:23 82° NNW 00:23:33 10° ENE
Cosmos 1340 Rocket 2.9 00:15:48 10° NNW 00:19:48 66° W 00:21:08 39° SSW
STARLINK-1198 3.9 00:18:05 10° W 00:22:13 67° N 00:26:22 10° E
STARLINK-1101 4.2 00:18:44 10° WNW 00:22:33 35° SW 00:22:33 35° SW
Cosmos 1300 4.4 00:19:22 10° N 00:22:41 27° ENE 00:25:04 15° ESE
Cosmos 1271 Rocket 3.6 00:21:40 27° WSW 00:23:14 41° WNW 00:26:58 10° N
Cosmos 1461 4.4 00:19:50 10° WSW 00:23:46 37° NW 00:27:55 10° NNE
BREEZE M DEB (TANK) 4.5 00:26:49 12° ESE 00:26:49 12° ESE 00:27:04 10° E
COSMOS 2487 2.3 00:22:47 10° NNW 00:26:16 84° ENE 00:27:18 43° SSE
Cosmos 1833 4.3 00:21:25 10° NW 00:26:58 59° WSW 00:29:45 29° S
STARLINK-1199 3.9 00:23:06 10° W 00:27:15 68° N 00:31:24 10° E
STARLINK-1102 4.3 00:23:46 10° W 00:27:21 33° SW 00:27:21 33° SW
Cosmos 1992 Rocket 3.9 00:25:15 30° SSW 00:27:54 88° ESE 00:33:09 10° NNE
STARLINK-1269 3.7 00:25:11 10° W 00:29:20 77° NNW 00:33:30 10° ENE
Cosmos 1707 3.8 00:29:05 25° WSW 00:30:42 37° WNW 00:34:23 10° N
STARLINK-1210 3.9 00:28:05 10° W 00:32:13 69° N 00:36:22 10° E
STARLINK-1111 4.5 00:28:46 10° W 00:32:07 31° SW 00:32:07 31° SW
STARLINK-1200 3.7 00:30:12 10° W 00:34:21 76° N 00:38:30 10° ENE
USA 215 4.4 00:33:07 20° SW 00:34:23 21° SW 00:39:12 10° WNW
Cosmos 1626 3.5 00:34:31 22° SE 00:35:58 29° E 00:39:14 10° NNE
Cosmos 1656 Rocket 3.6 00:33:52 28° SSW 00:36:54 79° ESE 00:42:31 10° NNE
Cosmos 1606 Rocket 3.4 00:32:38 10° NNW 00:36:59 82° W 00:38:48 34° S
STARLINK-1219 3.9 00:33:04 10° WNW 00:37:13 69° N 00:41:22 10° E
In-Cosmos 22 4.1 00:35:37 28° SSW 00:38:26 72° WNW 00:43:45 10° N
STARLINK-1192 3.8 00:35:11 10° W 00:39:20 74° N 00:43:30 10° ENE
FALCON 9 R/B 4.0 00:38:25 22° S 00:40:15 24° SSE 00:51:33 10° ESE
EO 1 Delta rocket 4.4 00:34:53 10° N 00:41:36 77° WNW 00:44:41 27° SSW
STARLINK-1211 3.9 00:38:02 10° WNW 00:42:12 70° N 00:46:20 10° E
CZ-4 R/B 3.8 00:38:08 10° NNE 00:43:02 89° WNW 00:45:23 31° SSW
STARLINK-1244 3.8 00:40:10 10° W 00:44:18 73° N 00:48:28 10° ENE
Cosmos 2297 Rocket 3.7 00:41:12 10° NNW 00:46:24 36° NE 00:51:34 10° ESE
APEX 4.4 00:42:04 22° SW 00:46:31 77° WNW 00:52:01 10° NNE
ERBS 4.3 00:44:09 10° WNW 00:47:08 30° N 00:50:10 10° ENE
STARLINK-1245 3.8 00:43:03 10° WNW 00:47:12 72° N 00:51:21 10° E
Cosmos 2292 Rocket 4.0 00:45:34 27° SW 00:47:28 45° WNW 00:50:59 10° N
STARLINK-1138 3.8 00:45:09 10° W 00:49:18 71° N 00:53:27 10° ENE
NOSS 3-2 (C) 4.4 00:42:26 10° NW 00:49:30 45° WSW 00:54:29 22° S
NOSS 7 (A) 4.5 00:48:54 50° SW 00:49:34 89° SE 00:52:31 10° NE
SL-4 R/B 3.2 00:49:12 29° S 00:50:14 32° SE 00:54:27 10° E
NOSS 5 (C) 4.3 00:48:05 10° NW 00:51:12 89° SW 00:53:30 21° SE
PSLV R/B 3.7 00:47:02 10° NNE 00:51:42 82° WNW 00:53:53 31° SSW
STARLINK-1203 3.9 00:47:44 10° W 00:51:57 71° N 00:56:10 10° ENE
STARLINK-1233 3.8 00:48:01 10° WNW 00:52:10 73° N 00:56:20 10° E
Cosmos 1437 4.4 00:52:48 19° ESE 00:53:43 22° E 00:56:07 10° NE
Aureole 3 4.1 00:50:56 10° NNW 00:54:17 29° W 00:55:01 26° WSW
STARLINK-1143 3.9 00:50:09 10° W 00:54:17 70° N 00:58:26 10° ENE
Cosmos 1674 2.8 00:53:21 36° SW 00:54:41 64° WNW 00:58:27 10° N
STARLINK-1204 3.8 00:53:01 10° WNW 00:57:11 74° N 01:01:20 10° E
Cosmos 1777 Rocket 3.9 00:53:05 10° NNW 00:58:21 84° WSW 01:01:54 21° SSE
ATLAS CENTAUR R/B 2.0 00:56:56 31° S 00:58:29 44° SE 01:02:26 10° NE
Timation 2 Rocket 4.0 00:52:04 10° NNW 00:58:33 86° ENE 01:04:29 11° SSE
STARLINK-1241 3.9 00:55:08 10° W 00:59:17 69° N 01:03:25 10° ENE
NOSS 3-4 (A) 3.4 00:57:31 24° SSW 01:01:17 77° SE 01:07:43 10° NE
NOSS 3-4 (C) 3.4 00:57:38 24° SSW 01:01:22 76° SE 01:07:49 10° NE
STARLINK-1238 3.7 00:57:58 10° WNW 01:02:08 76° NNE 01:06:17 10° E
SL-16 R/B 3.1 00:56:16 10° SE 01:02:16 58° ENE 01:08:19 10° N
Spot 1 4.2 01:00:54 25° SSE 01:03:37 86° WSW 01:08:33 10° NNW
STARLINK-1239 3.9 01:00:07 10° W 01:04:16 68° N 01:08:24 10° E
ATLAS 3B R/B 2.7 00:58:54 10° NW 01:05:37 67° SW 01:12:34 10° SSE
STARLINK-1201 3.7 01:02:59 10° WNW 01:07:08 78° NNE 01:11:18 10° E
CENTAUR R/B 3.6 01:01:48 10° NW 01:09:14 42° WSW 01:14:47 20° S
STARLINK-1240 3.9 01:05:07 10° W 01:09:16 68° N 01:13:24 10° E
Cosmos 1244 Rocket 4.5 01:07:54 24° S 01:11:52 87° W 01:18:07 10° N
STARLINK-1206 3.7 01:07:57 10° WNW 01:12:07 80° NNE 01:16:17 10° ESE
BREEZE-M DEB (TANK) 2.4 01:12:39 29° SE 01:12:39 29° SE 01:14:15 10° E
Cosmos 1908 4.3 01:10:40 10° NNW 01:14:01 30° W 01:15:09 25° WSW
Cosmos 1867 4.0 01:08:56 10° NW 01:14:02 41° WSW 01:16:44 24° S
STARLINK-1216 4.0 01:10:07 10° W 01:14:15 67° N 01:18:23 10° E
Meteor 2-21 Rocket 4.5 01:11:40 23° S 01:15:43 81° E 01:21:56 10° NNE
Cosmos 1892 Rocket 3.6 01:14:51 29° SSW 01:17:04 72° W 01:21:29 10° N
STARLINK-1205 3.6 01:12:56 10° WNW 01:17:06 82° NNE 01:21:16 10° ESE
Cosmos 1745 Rocket 4.4 01:12:45 18° SSE 01:17:15 58° E 01:23:16 10° NNE
STARLINK-1237 4.0 01:15:07 10° W 01:19:15 67° N 01:23:23 10° E
RESURS DK-1 3.0 01:19:17 26° S 01:21:12 45° ESE 01:25:10 10° NE
STARLINK-1218 3.6 01:17:54 10° WNW 01:22:05 85° NNE 01:26:14 10° ESE
Cosmos 2227 Rocket 3.1 01:16:39 10° NNW 01:22:13 51° NE 01:27:44 10° SE
Cosmos 1356 Rocket 3.6 01:18:43 10° N 01:22:52 72° ENE 01:25:49 19° SSE
STARLINK-1202 4.0 01:20:07 10° W 01:24:15 67° N 01:28:23 10° E
Cosmos 1726 Rocket 4.4 01:21:03 10° NNW 01:24:58 34° W 01:26:45 24° SW
Meteor 1-24 Rocket 3.6 01:22:03 24° SSW 01:25:20 84° WNW 01:30:46 10° NNE
Cosmos 2369 Rocket 3.6 01:21:05 10° WSW 01:26:10 32° NW 01:31:14 10° NNE
CZ-2D R/B 2.8 01:21:19 10° NNE 01:26:24 46° E 01:30:15 17° SSE
Helios 1B rocket 3.5 01:23:06 10° N 01:26:52 35° WNW 01:29:11 20° WSW
STARLINK-1254 3.6 01:22:54 10° WNW 01:27:04 87° NNE 01:31:14 10° ESE
Meteor 2-14 Rocket 4.5 01:24:00 23° SSW 01:28:00 74° WNW 01:34:10 10° N
ADEOS II 4.0 01:24:44 10° NE 01:28:46 22° E 01:32:47 10° SE
ATLAS 2AS CENTAUR R/B 3.2 01:23:17 15° SW 01:30:10 79° NW 01:38:06 10° NE
STARLINK-1231 3.6 01:27:54 10° WNW 01:32:04 90° SSW 01:36:14 10° ESE
CZ-4C R/B 3.5 01:30:46 21° SSE 01:33:35 84° WSW 01:37:59 10° NNW
STARLINK-1228 3.4 01:30:34 10° WNW 01:33:46 41° SSW 01:36:56 10° SE
STARLINK-1246 4.0 01:30:05 10° W 01:34:13 67° N 01:38:21 10° E
STARLINK-1234 3.2 01:32:01 10° W 01:34:59 40° SSW 01:37:02 17° SE
Resurs 1-4 Rocket 2.5 01:31:00 10° NNE 01:36:13 57° E 01:40:11 17° S
STARLINK-1212 3.0 01:33:21 10° WNW 01:36:23 49° SSW 01:39:23 10° SE
DELTA 2 DEB (DPAF) 4.3 01:34:11 24° S 01:36:45 57° W 01:41:10 10° NNW
STARLINK-1105 3.0 01:33:50 10° WNW 01:36:51 48° SSW 01:39:50 10° SE
Cosmos 1943 Rocket 4.1 01:32:35 10° W 01:36:59 24° NW 01:41:28 10° NNE
STARLINK-1232 3.5 01:32:53 10° WNW 01:37:03 87° SSW 01:41:13 10° ESE
STARLINK-1209 3.3 01:34:17 10° W 01:37:15 37° SSW 01:38:42 23° SSE
STARLINK-1247 3.0 01:34:44 10° WNW 01:37:45 48° SSW 01:40:48 10° SE
STARLINK-1227 3.0 01:35:12 10° WNW 01:38:12 48° SSW 01:41:12 10° SE
Meteor 2-5 Rocket 4.1 01:35:17 21° SW 01:38:53 53° WNW 01:44:22 10° N
STARLINK-1226 3.0 01:36:03 10° WNW 01:39:04 47° SSW 01:42:05 10° SE
STARLINK-1224 4.0 01:35:04 10° W 01:39:12 67° N 01:43:21 10° E
STARLINK-1215 3.0 01:37:00 10° WNW 01:40:01 47° SSW 01:43:02 10° SE
STARLINK-52 4.1 01:39:41 26° SSE 01:40:18 28° SE 01:43:07 10° E
STARLINK-1217 3.1 01:38:46 10° WNW 01:41:47 45° SSW 01:44:46 10° SE
STARLINK-1208 3.5 01:37:50 10° WNW 01:42:00 84° SSW 01:46:10 10° ESE
STARLINK-1229 3.1 01:39:41 10° WNW 01:42:41 45° SSW 01:45:42 10° SE
STARLINK-1270 3.1 01:40:33 10° WNW 01:43:34 44° SSW 01:46:33 10° SE
NPP 4.1 01:38:19 10° NNE 01:43:39 57° E 01:47:57 16° S
STARLINK-1225 4.0 01:40:04 10° W 01:44:13 68° N 01:48:21 10° E
STARLINK-1189 3.1 01:42:24 10° WNW 01:45:23 43° SSW 01:48:22 10° SE
Meteor 1-29 4.4 01:42:35 10° N 01:45:29 27° WNW 01:47:11 18° WSW
STARLINK-1188 3.1 01:43:16 10° WNW 01:46:16 42° SSW 01:49:15 10° SE
STARLINK-1235 3.4 01:44:01 10° W 01:46:53 35° SSW 01:49:45 10° SE
STARLINK-1271 3.5 01:42:51 10° WNW 01:47:00 80° SSW 01:51:09 10° ESE
STARLINK-1187 3.3 01:44:25 10° W 01:47:20 38° SSW 01:50:14 10° SE
Cosmos 1898 Rocket 4.1 01:42:17 10° NNW 01:47:36 60° ENE 01:52:51 10° SE
STARLINK-1191 3.2 01:45:46 10° W 01:48:43 41° SSW 01:51:39 10° SE
Cosmos 2058 Rocket 4.1 01:44:57 10° NNW 01:48:51 31° W 01:51:01 20° SW
Lacrosse 4 Rocket 3.6 01:45:09 10° NNW 01:49:05 30° NE 01:52:54 10° ESE
STARLINK-1230 3.9 01:45:03 10° W 01:49:12 68° N 01:53:20 10° E
STARLINK-1221 3.2 01:46:38 10° W 01:49:35 40° SSW 01:52:31 10° SE
Starlink 7 placeholder 1.7 01:49:43 61° SE 01:49:43 61° SE 01:51:36 10° ENE
STARLINK-1222 3.2 01:47:33 10° W 01:50:29 40° SSW 01:53:24 10° SE
STARLINK-1214 3.2 01:48:27 10° W 01:51:23 39° SSW 01:54:18 10° SE
STARLINK-1154 3.5 01:47:50 10° WNW 01:51:59 77° SSW 01:56:08 10° ESE
SJ 16-02 1.7 01:48:49 10° NNW 01:53:15 69° ENE 01:57:40 10° SSE
STARLINK-1243 3.9 01:50:02 10° WNW 01:54:11 69° N 01:58:20 10° E
CZ-4C R/B 4.1 01:51:22 10° SSE 01:54:50 19° ESE 01:58:40 10° ENE
Cosmos 2084 4.1 01:52:18 21° S 01:55:00 46° SE 01:59:17 10° NE
SL-14 R/B 4.1 01:54:05 21° SW 01:56:13 38° WNW 01:59:51 10° N
SL-08 ROCKET BODY 4.3 01:52:05 18° SSW 01:56:33 80° W 02:02:26 10° N
STARLINK-1197 3.5 01:52:48 10° WNW 01:56:57 74° SSW 02:01:05 10° ESE
Cosmos 1937 Rocket 4.3 01:52:43 10° NNW 01:57:51 53° ENE 02:03:00 10° SE
Cosmos 1300 3.8 01:55:01 10° NNW 01:58:19 28° W 02:00:00 20° SW
STARLINK-1236 3.9 01:55:02 10° WNW 01:59:11 70° N 02:03:19 10° E
COSMOS 2455 3.2 01:54:47 15° SW 01:59:49 61° NW 02:05:49 10° NNE
Meteor 2-10 Rocket 3.6 01:54:55 10° NNW 02:00:21 83° ENE 02:05:31 10° SSE
STARLINK-1198 3.5 01:57:45 10° WNW 02:01:54 70° SSW 02:06:01 10° ESE
Cosmos 921 Rocket 3.1 02:00:21 20° SW 02:03:10 65° WNW 02:07:28 10° NNE
Cosmos 1174 4.5 02:03:35 15° WSW 02:06:02 40° NW 02:09:44 10° NNE
STARLINK-1199 3.5 02:02:47 10° WNW 02:06:55 67° SSW 02:11:01 10° ESE
Cosmos 1709 Rocket 4.1 02:01:48 13° S 02:07:20 75° E 02:13:29 10° NNE
STARLINK-1269 3.9 02:04:58 10° WNW 02:09:08 72° N 02:13:17 10° E
Cosmos 1626 Rocket 3.7 02:06:42 19° SSW 02:09:40 58° WNW 02:13:58 10° N
STARLINK-60 2.8 02:08:51 18° WSW 02:11:07 78° SSE 02:14:20 10° ENE
Cosmos 1626 3.6 02:09:03 15° WSW 02:11:14 25° WNW 02:14:22 10° NNW
STARLINK-1210 3.6 02:07:45 10° WNW 02:11:52 63° SSW 02:15:58 10° SE
STARLINK-1200 3.8 02:10:00 10° WNW 02:14:09 74° N 02:18:18 10° E
Cosmos 2219 3.3 02:09:36 10° NW 02:15:10 56° WSW 02:20:39 10° S
STARLINK-1219 3.6 02:12:44 10° WNW 02:16:50 60° SSW 02:20:55 10° SE
STARLINK-1192 3.8 02:14:58 10° WNW 02:19:08 76° N 02:23:17 10° E
Cosmos 1980 Rocket 4.2 02:16:21 10° SSE 02:20:22 20° E 02:24:24 10° NE
STARLINK-1328 4.5 02:20:05 16° S 02:21:35 22° SE 02:24:06 10° E
STARLINK-1211 3.6 02:17:42 10° WNW 02:21:47 57° SSW 02:25:50 10° SE
STARLINK-1354 4.5 02:20:22 16° S 02:21:53 22° SE 02:24:25 10° E
STARLINK-1347 4.5 02:20:44 16° S 02:22:15 22° SE 02:24:46 10° E
STARLINK-1357 4.5 02:21:01 16° S 02:22:34 23° SE 02:25:05 10° E
STARLINK-1335 4.5 02:21:22 16° S 02:22:54 23° SE 02:25:27 10° E
Cosmos 1328 4.4 02:19:22 10° S 02:23:14 54° E 02:27:09 10° NNE
STARLINK-1327 4.5 02:21:41 16° S 02:23:14 23° SE 02:25:47 10° E
STARLINK-1340 4.4 02:22:01 16° S 02:23:35 23° SE 02:26:08 10° E
STARLINK-1356 4.4 02:22:21 16° S 02:23:56 23° SE 02:26:29 10° E
ERBS 4.0 02:20:54 10° NW 02:24:02 36° NNE 02:27:10 10° E
STARLINK-1244 3.8 02:19:57 10° WNW 02:24:06 77° NNE 02:28:16 10° E
STARLINK-1345 4.4 02:22:41 16° S 02:24:16 23° SE 02:26:50 10° E
STARLINK-1355 4.4 02:22:59 16° S 02:24:36 23° SE 02:27:10 10° E
Cosmos 192 4.4 02:20:35 15° SSW 02:24:44 84° ESE 02:29:44 10° NNE
STARLINK-1321 4.4 02:23:18 16° S 02:24:55 23° SE 02:27:29 10° E
STARLINK-1358 4.4 02:23:39 16° S 02:25:17 23° SE 02:27:52 10° E
STARLINK-1332 4.4 02:23:57 16° S 02:25:36 24° SE 02:28:10 10° E
UNK 4.5 02:22:20 15° SSW 02:25:39 35° W 02:29:53 10° NNW
ERS-2 3.3 02:22:27 10° SE 02:25:57 44° ENE 02:29:28 10° N
STARLINK-1348 4.4 02:24:18 16° S 02:25:57 24° SE 02:28:32 10° E
STARLINK-1330 4.4 02:24:36 16° S 02:26:16 24° SE 02:28:52 10° E
Cosmos 220 Rocket 4.4 02:22:56 16° SW 02:26:22 56° WNW 02:30:46 10° NNE
STARLINK-1363 4.4 02:24:56 16° S 02:26:36 24° SE 02:29:12 10° E
Cosmos 1437 4.3 02:24:54 14° WSW 02:26:37 22° WNW 02:29:03 10° NNW
STARLINK-1245 3.7 02:22:42 10° WNW 02:26:46 54° SSW 02:30:48 10° SE
STARLINK-1337 4.4 02:25:15 16° S 02:26:56 24° SE 02:29:32 10° E
STARLINK-1342 4.4 02:25:35 16° S 02:27:16 24° SE 02:29:53 10° E
STARLINK-1364 4.4 02:25:55 16° S 02:27:37 24° SE 02:30:14 10° E
AQUA 3.8 02:23:09 10° NNE 02:27:56 78° WNW 02:32:11 13° SSW
STARLINK-1376 4.3 02:26:15 16° S 02:27:58 24° SE 02:30:35 10° E
Cosmos 1812 Rocket 4.2 02:23:49 10° NNW 02:28:02 40° W 02:31:37 13° SSW
STARLINK-1360 4.3 02:26:30 16° S 02:28:14 25° SE 02:30:52 10° E
STARLINK-1361 4.3 02:26:56 16° S 02:28:40 25° SE 02:31:18 10° E
STARLINK-1367 4.3 02:27:10 16° S 02:28:56 25° SE 02:31:36 10° E
STARLINK-1138 3.7 02:24:56 10° WNW 02:29:05 79° NNE 02:33:15 10° E
STARLINK-1366 4.3 02:27:33 16° S 02:29:18 25° SE 02:31:57 10° E
SL-4 R/B 2.3 02:24:49 10° WSW 02:29:39 77° SSE 02:34:18 10° ENE
CZ-4B R/B 3.6 02:25:20 10° NNE 02:30:27 73° WNW 02:35:12 12° SSW
Cosmos 2297 Rocket 2.4 02:25:12 10° NW 02:30:41 53° WSW 02:36:09 10° S
STARLINK-1233 3.7 02:27:41 10° WNW 02:31:43 51° SSW 02:35:43 10° SE
STARLINK-1203 3.8 02:27:44 10° WNW 02:31:58 81° NNE 02:36:11 10° ESE
STARLINK-1353 4.5 02:31:17 14° SSW 02:33:33 27° SE 02:36:33 10° E
STARLINK-1143 3.7 02:29:55 10° WNW 02:34:04 82° NNE 02:38:14 10° ESE
Cosmos 2082 3.7 02:28:46 10° NNW 02:34:29 88° WSW 02:40:07 10° SSE
STARLINK-1375 4.4 02:33:04 14° SSW 02:35:24 28° SE 02:38:27 10° E
Cosmos 990 Rocket 4.1 02:31:23 10° NNW 02:36:35 60° WSW 02:41:44 10° S
STARLINK-1204 3.8 02:32:41 10° WNW 02:36:41 48° SSW 02:40:40 10° SE
CBERS-1 4.0 02:32:09 10° NNE 02:37:19 90° WNW 02:42:27 10° SSW
ATLAS CENTAUR R/B 2.6 02:33:30 10° WSW 02:37:29 35° NW 02:41:14 10° NNE
STARLINK-1350 4.4 02:35:22 14° SSW 02:37:46 29° SE 02:40:51 10° E
FALCON 9 DEB 3.4 02:35:24 15° SW 02:38:06 52° SSE 02:41:30 10° ENE
STARLINK-1241 3.7 02:34:53 10° WNW 02:39:04 84° NNE 02:43:13 10° ESE
STARLINK-29 2.9 02:36:59 13° WSW 02:39:46 72° SSE 02:42:58 10° ENE
STARLINK-1352 4.3 02:37:40 14° SSW 02:40:11 31° SE 02:43:20 10° E
Cosmos 1455 2.6 02:37:15 10° NNW 02:40:50 42° W 02:44:16 11° SSW
STARLINK-1238 3.9 02:37:39 10° WNW 02:41:37 45° SSW 02:45:34 10° SE
STARLINK-1368 4.3 02:39:45 13° SSW 02:42:21 32° SE 02:45:32 10° E
Cosmos 1602 Rocket 4.4 02:39:06 13° SW 02:42:35 36° WNW 02:46:37 10° N
Cosmos 1825 Rocket 3.5 02:38:21 10° SSW 02:42:38 83° WNW 02:46:59 10° N
STARLINK-1239 3.7 02:39:52 10° WNW 02:44:02 86° NNE 02:48:12 10° ESE
STARLINK-1369 4.2 02:41:37 13° SSW 02:44:15 32° SE 02:47:26 10° E
ATLAS CENTAUR R/B 2.8 02:42:24 10° W 02:45:13 31° SW 02:50:48 10° SSE
Meteor 1-28 Rocket 3.6 02:41:59 10° SSE 02:45:44 67° ENE 02:49:30 10° N
Cosmos 2263 Rocket 3.9 02:41:00 10° NNW 02:46:14 38° NE 02:51:26 10° ESE
SL-16 R/B 3.4 02:41:06 11° SSW 02:46:14 31° W 02:51:39 10° NNW
STARLINK-1201 4.0 02:42:40 10° WNW 02:46:35 42° SSW 02:50:30 10° SE
STARLINK-1372 4.2 02:43:58 13° SSW 02:46:43 34° SSE 02:49:57 10° E
Cosmos 2074 Rocket 4.4 02:42:29 10° S 02:48:42 65° E 02:54:56 10° NNE
STARLINK-1378 4.1 02:46:05 12° SSW 02:48:56 35° SSE 02:52:11 10° E
STARLINK-1240 3.6 02:44:52 10° WNW 02:49:02 89° NNE 02:53:11 10° ESE
GP-B 3.5 02:44:50 10° N 02:49:09 50° W 02:53:27 10° SSW
STARLINK-1329 4.1 02:46:35 12° SSW 02:49:27 35° SSE 02:52:43 10° E
STARLINK-1365 4.1 02:47:17 12° SSW 02:50:10 37° SSE 02:53:27 10° E
IRS-1D 3.7 02:44:51 10° NNE 02:50:13 73° WNW 02:55:29 10° SSW
Cosmos 841 Rocket 4.3 02:45:33 10° S 02:50:35 48° ESE 02:55:37 10° NNE
STARLINK-1379 4.1 02:48:13 12° SSW 02:51:08 36° SSE 02:54:25 10° E
STARLINK-1206 4.0 02:47:39 10° WNW 02:51:33 39° SSW 02:55:25 10° SE
STARLINK-1362 4.1 02:48:47 12° SSW 02:51:44 36° SSE 02:55:02 10° E
Cosmos-2242 3.3 02:48:15 10° NNW 02:52:23 49° W 02:56:29 10° SSW
ATLAS 5 CENTAUR R/B 3.8 02:52:32 10° NNW 02:53:26 12° N 02:54:24 10° NNE
Cosmos 1400 Rocket 3.0 02:49:27 10° NNW 02:53:35 84° E 02:57:43 10° SSE
STARLINK-1216 3.6 02:49:50 10° WNW 02:54:00 88° SSW 02:58:10 10° ESE
STARLINK-1373 4.0 02:50:59 12° SW 02:54:01 38° SSE 02:57:21 10° E
Cosmos 2221 3.8 02:50:10 10° N 02:54:19 43° ENE 02:58:28 10° SSE
ATLAS 3B R/B 4.1 02:51:12 10° WNW 02:55:12 16° WSW 02:59:16 10° SW
COBE Rocket 4.0 02:50:53 10° SSE 02:55:49 88° ENE 03:00:56 10° NNW
STARLINK-1390 4.0 02:52:59 11° SW 02:56:04 39° SSE 02:59:24 10° ENE
STARLINK-1205 4.1 02:52:39 10° WNW 02:56:30 37° SW 03:00:19 10° SSE
STARLINK-1237 3.6 02:54:50 10° WNW 02:59:00 85° SSW 03:03:09 10° ESE
RESURS DK-1 3.9 02:55:50 10° WSW 02:59:25 27° NW 03:03:01 10° NNE
Cosmos 2184 Rocket 4.2 02:54:03 10° S 03:00:12 74° E 03:06:22 10° NNE
SL-08 R/B 3.4 02:56:43 10° S 03:01:21 59° WSW 03:05:58 10° NNW
STARLINK-1218 4.2 02:57:39 10° W 03:01:26 35° SW 03:05:13 10° SSE
CZ-4C R/B 3.6 02:58:07 10° SSE 03:01:42 64° ENE 03:05:19 10° N
STARLINK-1202 3.6 02:59:49 10° WNW 03:03:59 82° SSW 03:08:08 10° ESE
IRS-P3 4.2 03:00:29 10° NNE 03:05:50 75° WNW 03:11:08 10° SSW
Cosmos 2227 Rocket 2.9 03:01:02 10° NW 03:06:06 34° WSW 03:11:09 10° S
Cosmos 1703 3.7 03:02:25 10° SSW 03:06:16 49° WNW 03:10:08 10° N
CZ-2D R/B 3.2 03:01:40 10° N 03:06:20 32° WNW 03:10:56 10° WSW
STARLINK-1254 4.3 03:02:40 10° W 03:06:23 33° SW 03:10:07 10° SSE
Cosmos 2181 Rocket 4.4 03:00:46 10° NNW 03:06:52 48° W 03:13:00 10° SSW
ADEOS II 2.2 03:03:43 10° N 03:08:57 66° WNW 03:14:08 10° SSW
Cosmos 1763 Rocket 3.5 03:04:10 10° SSW 03:09:18 74° WNW 03:14:24 10° NNE
Cosmos 2150 Rocket 4.3 03:05:04 10° NNW 03:10:18 73° ENE 03:15:27 10° SSE
STARLINK-1231 4.4 03:07:42 10° W 03:11:21 31° SW 03:15:01 10° SSE
Cosmos 1697 Rocket 2.9 03:05:42 10° SSW 03:11:22 79° ESE 03:17:03 10° NNE
Cosmos 1315 Rocket 3.7 03:09:44 10° N 03:13:36 52° ENE 03:17:26 10° SSE
STARLINK-1246 3.6 03:09:46 10° WNW 03:13:55 75° SSW 03:18:03 10° ESE
Resurs 1-4 Rocket 3.4 03:11:21 10° N 03:15:45 28° WNW 03:20:10 10° WSW
